User: anonymous   Login
Location: Unspecified
(0.0000°N, 0.0000°E)
Time: 02:35:29
(UTC+00:00)
Language:

SICRAL 1B - Orbit

View from above orbital plane
View from above orbital plane
View from above satellite
View from above satellite

Ground track
Ground track

The orbit data is extracted from the following two-line orbital elements,

1 34810U 09020A   16035.84464296 0.00000000  00000-0  00000-0 0    08
2 34810   0.0708  90.3238 0002003 178.5720 181.4807  1.00270000    02
Epoch (UTC): 04 February 2016 20:16:17
Eccentricity: 0.0002003
inclination: 0.0708°
perigee height: 35778 km
apogee height: 35795 km
right ascension of ascending node: 90.3238°
argument of perigee: 178.5720°
revolutions per day: 1.00270000
mean anomaly at epoch: 181.4807°
orbit number at epoch: 0

The dashed part of the orbit path shows where the satellite is in the earth's shadow,  

DLR